RH
16 16 16 16 17 19 19 19 18 18 18 18 18 18 20 22 22 20 19 23 31 35 33 29 24 23 23 26 29 34 36 39 43 45 45 45 43 39 35 35 37 38 37
17 17 18 20 22 24 23 21 20 20 20 20 23 25 24 22 20 19 22 27 33 39 40 40 36 32 29 29 33 38 44 48 49 52 53 54 52 48 44 42 43 46 48
19 22 26 26 28 29 28 26 25 25 26 27 28 27 24 20 20 22 25 30 36 39 42 44 41 38 36 36 40 44 49 54 57 59 61 62 61 58 55 53 53 55 55
24 28 32 32 32 34 35 35 33 31 30 30 28 26 24 22 22 26 32 34 35 41 47 50 49 46 43 42 44 48 56 63 66 65 66 68 69 66 66 67 68 68 67
34 37 39 38 39 42 42 41 41 40 38 35 31 28 27 27 29 30 32 36 45 49 52 55 54 52 52 53 54 56 60 64 68 71 75 77 77 77 78 79 79 78 70
42 44 46 50 48 44 44 49 49 49 49 47 41 33 31 33 35 40 50 59 63 61 58 59 61 60 58 58 57 57 58 60 66 74 78 80 84 87 89 88 85 76 67
48 48 48 47 45 49 52 48 44 44 47 49 53 55 52 54 58 62 70 72 69 66 61 62 66 63 59 58 57 56 59 64 70 74 83 87 93 92 90 80 70 59 50
46 44 45 45 44 44 42 43 41 37 38 42 46 58 67 74 75 75 73 73 70 65 60 56 55 58 60 57 52 54 57 60 61 71 83 85 79 86 74 62 59 44 41
47 40 35 32 31 31 34 35 34 35 39 45 64 73 75 78 79 79 74 67 65 55 45 42 42 49 59 55 55 53 46 53 57 54 61 64 66 66 66 57 56 48 56
45 43 42 42 43 46 48 52 57 64 67 67 68 74 77 78 83 76 63 48 40 38 32 31 34 40 45 50 52 48 48 64 47 42 42 46 56 70 77 77 75 69 82
53 53 54 58 59 65 70 72 76 77 72 67 66 61 56 50 58 52 44 35 35 33 32 37 43 40 36 40 45 46 52 64 76 68 79 83 91 96 98 100 100 97 86
63 66 67 70 76 79 83 88 81 60 44 42 43 44 45 49 48 52 46 43 38 31 33 48 58 51 41 48 56 57 64 80 97 100 100 100 100 100 100 96 92 97 96
74 80 83 78 78 79 86 94 89 78 67 60 59 67 65 66 84 74 62 55 50 42 50 53 55 56 53 52 58 67 82 89 99 100 100 100 100 100 100 100 100 100 95
72 76 80 88 90 92 93 94 100 100 100 100 100 100 100 100 100 92 92 91 86 82 74 78 80 85 90 99 100 100 100 100 100 99 98 96 100 100 100 100 97 97 89
66 65 72 76 80 90 99 100 100 100 100 100 100 100 100 100 100 100 100 100 100 100 99 100 100 100 100 100 100 100 100 100 100 100 100 100 100 100 99 100 96 79 63
76 77 76 74 73 72 72 72 73 76 79 84 87 93 97 97 100 100 100 100 100 100 100 100 100 100 100 100 100 100 100 100 91 84 80 81 85 69 69 68 59 42 46
60 60 60 61 63 51 43 37 39 41 45 50 54 56 58 56 54 54 57 66 80 97 100 100 100 100 100 100 100 100 84 76 74 65 77 75 73 72 71 83 92 80 65
47 44 41 38 34 30 29 32 29 32 34 37 38 40 42 42 45 49 54 56 53 53 51 55 62 66 69 69 62 69 65 66 74 76 71 73 76 86 88 85 67 65 65
34 33 33 32 30 31 32 31 29 27 26 27 28 29 30 33 36 39 42 39 38 41 49 49 54 62 55 59 58 68 74 85 93 93 96 94 99 98 95 91 92 96 92
38 39 37 38 36 34 37 46 51 54 52 52 53 55 50 48 61 68 59 64 74 84 100 100 100 100 95 85 91 87 72 80 93 100 100 100 100 100 100 98 96 100 100
36 36 39 41 44 42 50 54 65 75 96 100 100 100 94 86 71 57 53 46 42 46 52 59 62 63 62 63 74 73 78 99 100 100 100 100 98 91 95 99 100 100 84
62 59 52 51 61 80 79 87 96 92 93 99 90 74 68 61 56 50 46 56 66 68 67 66 65 67 71 88 91 100 100 100 100 100 94 97 100 100 100 92 67 48 39
94 86 91 100 98 100 100 97 93 88 83 77 68 55 48 48 55 60 68 65 61 60 58 59 60 59 62 75 99 100 100 100 98 99 100 100 96 78 56 42 35 33 33
97 98 98 97 94 88 83 81 72 64 62 59 51 45 45 43 40 36 40 46 52 59 61 61 76 99 100 100 94 95 100 100 100 100 88 64 45 35 35 38 38 34 30
83 86 86 80 71 64 55 43 36 41 38 34 38 42 38 34 35 38 40 47 62 76 100 100 100 100 100 100 100 100 100 96 70 44 38 38 37 39 39 36 32 25 22
17 16 16 14 13 13 15 19 25 34 48 54 56 48 48 52 68 84 88 95 100 100 100 100 100 100 100 100 92 67 47 39 40 41 43 40 38 37 32 25 22 22 24
Wind_Speed
46 46 45 45 44 40 38 37 37 37 37 37 37 38 40 40 40 40 40 40 40 41 42 43 43 44 44 44 43 42 42 41 40 40 39 38 38 39 39 40 41 42 42
46 47 46 45 43 40 39 40 40 40 40 41 41 41 43 43 43 44 44 45 45 45 45 45 46 46 45 45 44 44 44 44 43 43 43 42 42 43 44 45 46 46 47
47 46 45 45 44 42 43 43 42 43 43 44 44 45 46 47 48 48 49 49 49 50 49 48 48 48 47 47 46 46 46 47 47 47 46 46 46 47 48 49 51 51 51
49 49 48 48 47 45 45 45 46 46 46 46 47 48 49 51 52 52 53 54 54 55 53 51 50 50 50 50 49 49 49 49 50 51 51 52 52 51 52 53 54 55 55
51 51 50 49 49 49 48 48 49 50 51 51 51 52 54 55 55 56 57 58 59 57 55 53 52 52 52 52 52 52 53 53 54 55 55 55 55 55 56 56 57 58 58
52 52 54 53 53 53 52 53 54 54 54 54 54 55 57 58 59 61 62 60 58 57 57 56 56 55 55 55 55 56 57 57 58 57 57 57 58 58 59 59 59 60 61
55 57 57 56 56 56 58 59 60 60 60 60 60 60 61 62 63 62 61 61 61 59 58 58 57 56 57 58 59 59 60 60 59 58 59 60 61 60 61 62 64 65 67
58 59 59 59 61 61 62 62 63 63 63 64 65 65 63 61 62 63 64 62 60 60 59 58 58 58 59 60 62 62 62 61 61 60 61 62 64 64 66 68 70 71 72
61 61 61 62 63 64 63 63 63 65 66 66 65 66 67 66 66 65 64 60 60 60 61 61 61 62 63 63 63 64 63 63 62 63 64 66 67 69 71 72 75 77 78
67 68 67 67 66 66 65 63 61 61 62 64 63 61 60 59 62 61 61 60 62 64 66 66 66 65 66 65 64 64 64 64 67 68 69 71 72 74 75 78 80 82 84
63 62 61 61 60 58 58 57 58 58 59 58 56 55 56 57 60 63 64 65 66 68 69 68 68 68 68 68 69 69 69 70 72 73 74 75 76 78 80 82 85 87 89
57 57 56 55 55 54 53 53 55 56 57 58 59 58 59 61 62 66 67 69 71 73 73 72 72 73 72 72 72 73 74 75 74 75 77 79 81 83 86 87 89 92 94
57 56 54 54 54 54 54 55 57 60 61 62 63 64 66 68 69 70 72 73 74 74 74 75 76 76 77 77 77 77 77 78 79 81 82 84 85 87 89 91 93 95 95
61 62 62 63 63 63 64 64 65 67 69 70 71 72 73 73 73 73 73 74 75 76 76 76 78 78 77 78 79 80 82 83 83 85 86 88 90 91 92 94 95 93 93
63 63 64 64 65 64 64 64 66 67 69 70 71 73 74 75 75 76 76 77 77 78 78 78 79 79 80 81 82 83 84 85 87 89 91 92 93 95 96 94 92 91 90
66 65 65 65 66 66 67 68 69 69 70 71 72 73 73 75 76 77 77 79 79 81 81 82 82 83 84 85 87 90 91 92 93 93 93 95 94 92 92 93 91 92 92
64 65 66 67 67 66 67 68 68 69 70 71 72 73 75 77 77 79 79 80 81 82 83 85 85 87 89 90 89 89 90 89 91 92 91 92 93 91 92 93 95 96 95
72 72 73 73 73 73 73 74 76 78 78 78 79 79 79 79 78 77 78 79 80 82 83 85 87 88 89 91 92 91 91 90 91 91 92 94 96 99 99 98 97 96 96
80 80 80 80 82 80 78 79 80 82 82 83 85 85 85 83 82 82 83 86 89 90 89 89 91 90 91 92 93 93 95 97 99 100 99 99 97 96 92 89 89 87 87
79 79 80 81 82 84 84 83 84 85 84 84 85 85 86 87 87 91 93 94 94 96 97 98 96 94 96 97 98 96 94 93 92 92 88 85 84 85 83 81 80 80 79
85 86 86 90 92 93 92 92 91 91 90 88 90 93 97 98 97 99 101 101 99 100 97 94 89 87 87 86 83 82 83 81 79 79 81 79 77 75 75 76 75 75 78
93 94 96 98 99 100 100 99 99 99 100 102 104 106 108 109 102 98 96 93 89 86 84 80 78 78 77 77 78 75 74 73 72 73 72 70 70 70 71 72 75 78 80
102 103 104 106 107 108 106 106 106 106 105 104 103 102 99 95 90 87 85 85 83 81 77 74 74 74 72 70 67 66 65 66 67 66 65 66 68 71 74 76 77 76 75
107 106 105 106 106 107 104 99 98 96 93 91 91 89 85 82 80 77 75 76 75 74 72 69 64 61 61 62 62 61 60 61 62 64 67 70 72 73 74 73 72 71 72
101 101 100 99 99 98 96 93 89 85 81 79 77 75 72 70 68 68 67 65 62 58 55 57 57 56 55 55 56 57 59 62 64 67 69 70 70 70 70 70 71 71 66
91 90 91 91 90 89 87 85 82 77 72 68 63 60 61 61 56 54 54 52 51 54 56 54 52 53 52 52 54 58 60 62 64 67 70 70 69 68 68 68 63 57 50
Wind_Direction
266 267 268 271 272 274 273 273 273 275 275 274 274 275 275 274 274 274 275 275 275 277 277 277 277 277 277 278 280 280 280 280 281 282 283 283 283 284 285 285 287 289 290
263 265 267 270 272 272 272 272 272 272 273 274 275 275 274 274 273 273 274 274 275 276 277 276 276 277 276 277 277 277 277 277 278 279 280 281 283 283 283 283 284 286 287
261 264 266 269 271 271 272 272 272 272 273 275 275 275 274 273 273 273 274 276 278 279 277 275 274 274 274 274 273 274 275 277 278 278 279 279 279 280 280 282 284 285 287
260 263 266 270 272 273 273 274 274 274 274 273 272 272 272 271 272 273 274 276 278 279 277 274 272 272 272 273 273 273 273 274 275 276 277 277 277 278 279 281 283 284 285
260 263 265 267 269 271 272 273 273 273 273 272 271 271 271 271 271 272 274 277 278 277 275 274 274 272 272 272 272 273 273 273 274 275 277 278 279 280 281 281 282 283 283
261 263 265 268 269 269 269 270 271 271 270 270 270 269 269 270 271 273 274 276 275 275 275 275 274 273 273 273 274 274 275 275 275 276 277 277 278 279 279 280 280 279 281
261 263 265 265 266 266 268 270 272 271 270 269 270 269 269 269 270 271 272 274 275 276 275 275 275 274 275 275 275 275 275 275 276 276 276 277 278 279 279 277 278 278 278
261 262 264 266 267 267 268 269 269 269 269 270 271 270 269 268 269 270 271 273 274 274 274 274 275 276 275 275 275 275 275 275 275 274 274 275 275 276 276 277 278 281 282
268 268 267 266 267 267 267 267 267 267 268 269 269 270 270 270 269 270 271 271 271 272 273 274 275 276 276 277 276 276 276 276 275 274 275 276 276 277 279 281 282 284 286
271 271 271 270 268 267 265 264 264 264 264 266 267 267 268 268 267 268 269 271 272 272 273 275 276 276 275 275 274 274 275 275 275 276 277 278 279 280 282 283 284 286 288
269 269 269 267 266 265 265 263 261 261 262 264 263 262 264 265 266 267 268 269 271 273 276 277 275 274 274 276 275 275 275 275 276 277 278 279 281 282 283 284 286 287 288
265 265 264 264 265 264 264 263 262 261 260 261 262 263 265 266 267 268 269 270 270 271 272 273 273 273 273 274 275 276 276 277 278 280 280 280 281 282 283 285 286 288 289
263 262 262 262 263 263 264 263 262 262 262 262 263 264 265 265 266 266 267 268 270 270 270 271 273 274 275 275 276 276 277 278 278 279 279 280 282 283 284 286 287 289 290
266 265 264 262 262 262 262 262 262 262 262 262 263 264 265 266 267 267 268 268 269 270 269 271 272 274 275 276 277 277 277 277 277 278 279 280 282 283 284 285 286 288 289
268 268 267 267 267 266 266 266 266 266 267 267 267 268 267 267 268 269 270 271 272 273 274 273 274 275 275 275 276 276 277 277 278 279 280 282 284 285 286 287 287 287 289
269 269 269 270 270 271 271 271 271 271 271 272 273 273 273 274 273 273 273 273 272 272 273 273 273 273 274 275 275 275 277 279 281 281 282 281 282 284 283 284 285 287 291
270 270 269 270 271 273 274 274 274 273 273 272 272 272 272 273 272 271 271 271 272 272 272 272 274 274 274 275 276 277 279 280 280 281 280 281 281 283 285 284 285 288 288
273 273 273 273 272 272 272 273 274 274 273 271 269 269 269 271 271 272 272 273 275 274 275 276 275 275 275 276 277 278 280 282 283 283 283 283 282 282 283 284 285 288 289
270 270 271 272 273 274 275 275 275 275 274 275 276 276 276 278 280 281 283 285 285 283 282 281 281 281 280 280 280 281 282 283 282 281 281 281 280 279 279 280 282 284 286
279 280 280 279 279 279 280 279 278 277 278 278 279 277 278 280 280 282 284 282 281 280 276 276 275 275 275 278 277 277 278 277 277 276 275 276 277 278 281 283 284 284 284
279 278 279 280 281 281 282 281 280 279 276 273 274 275 278 281 281 281 282 284 280 278 279 280 280 280 279 278 275 275 274 273 275 276 277 277 281 282 282 282 283 284 286
278 278 279 279 278 276 276 276 276 276 276 276 280 284 283 283 283 282 281 279 278 278 278 278 277 275 273 272 273 274 275 278 276 277 280 280 280 281 281 283 285 287 290
271 272 271 270 271 273 275 277 279 279 280 280 281 282 281 280 278 277 276 277 276 276 275 273 271 272 273 274 275 274 275 277 277 277 277 279 282 284 285 287 289 289 290
274 275 275 275 276 276 277 278 278 278 278 277 277 277 278 278 278 277 275 273 272 272 271 272 270 270 272 275 276 276 275 275 277 279 281 282 284 286 287 288 288 289 290
272 273 273 275 275 276 277 277 277 277 277 276 276 276 276 276 274 273 272 271 269 269 266 267 270 271 272 273 274 274 275 277 279 281 282 283 285 286 287 289 290 290 288
271 271 272 272 273 273 274 274 274 274 275 275 276 275 273 273 272 270 269 266 263 261 266 269 268 269 270 272 276 279 280 282 283 285 285 285 285 287 289 290 288 285 283